Regional Weather Roundup
Issued by NWS Albany, NY

Home | Current Version | Previous Version | Graphics & Text | Print | Product List | Glossary Off
Versions: 1 2 3 4 5 6 7 8 9 10 11 12 13 14 15 16 17 18 19 20 21 22 23 24 25 26 27 28 29 30 31 32 33 34 35 36 37 38 39 40 41 42 43 44 45 46 47 48 49 50

000
ASUS41 KALY 210810
RWRALY

NEW YORK STATE HOURLY WEATHER ROUNDUP
NATIONAL WEATHER SERVICE ALBANY NY
400 AM EDT SUN SEP 21 2014

NOTE: "FAIR" INDICATES FEW OR NO CLOUDS BELOW 12,000 FEET WITH NO
SIGNIFICANT WEATHER AND/OR NO OBSTRUCTIONS TO VISIBILITY.

NYZ032-033-038>043-046>054-057>066-NYZ062>081-210900-
EAST


CITY           SKY/WX    TMP DP  RH WIND       PRES   REMARKS
ALBANY         PTCLDY    63  58  83 S8        29.91F
GLENS FALLS    PTCLDY    54  52  93 W5        29.91F FOG
POUGHKEEPSIE   CLOUDY    62  60  93 SE5       29.95F
MONTGOMERY     CLOUDY    60  57  89 CALM      29.95F
WHITE PLAINS   CLOUDY    64  63  96 CALM      29.96F FOG
ISLIP          LGT RAIN  69  67  93 S6        29.94F
NEW YORK CITY  CLOUDY    67  65  93 CALM      29.95F
CENTRAL PARK   CLOUDY    67  64  90 CALM      29.98F FOG
$$

NYZ005>009-017-018-044>046-055-056-210900-
CENTRAL


CITY           SKY/WX    TMP DP  RH WIND       PRES   REMARKS
FULTON         MOCLDY    67  57  70 S12       29.79F
SYRACUSE       PTCLDY    69  57  65 S20G26    29.79F
ROME           CLEAR     64  57  78 VRB5      29.85F
ELMIRA         PTCLDY    65  57  75 CALM      29.86F
BINGHAMTON     CLEAR     60  55  83 S6        29.90F
MONTICELLO     CLOUDY    57  55  94 SE3       29.98F
$$

NYZ026>034-041>043-210900-
NORTH


CITY           SKY/WX    TMP DP  RH WIND       PRES   REMARKS
WATERTOWN      MOCLDY    70  55  59 S17G32    29.73F
FORT DRUM      NOT AVBL
MASSENA        MOCLDY    69  58  67 S17G26    29.71F
SARANAC LAKE   MOCLDY    62  54  74 SW13G22   29.82F
PLATTSBURGH    PTCLDY    63  56  78 S17G24    29.80F
$$

NYZ001>004-010>016-019>021-210900-
WEST


CITY           SKY/WX    TMP DP  RH WIND       PRES   REMARKS
NIAGARA FALLS  CLOUDY    69  63  81 SW9       29.72F
BUFFALO        CLOUDY    70  61  73 SW15      29.73F
DUNKIRK        PTCLDY    69  61  75 S13G24    29.74F
JAMESTOWN      MOCLDY    64  61  88 S9G16     29.81F
WELLSVILLE     PTCLDY    63  56  78 S14G22    29.86F
ROCHESTER      MOCLDY    70  59  68 S12       29.75F
PENN YAN       PTCLDY    65  56  72 SW12G21   29.81F
$$

             KEY
       WCI = WIND CHILL INDEX
       VSB = VISIBILITY
       HX  = HEAT INDEX
$$



USA.gov is the U.S. government's official web portal to all federal, state and local government web resources and services.